Starlink 11564

operational
NORAD ID: 62913 Int'l Des: 2025-027 Owner: SPXS Country: US Constellation: starlink
LEOCIRCULAR

Starlink 11564について

説明を読み込み中...

リアルタイム位置

3D地球を読み込み中...

次回通過

高度履歴

Altitude vs Time

uPlot chart will show altitude changes over time

軌道要素

1 62913U 25027G 26034.44125337 .00371985 00000-0 27564-2 0 9990
2 62913 42.9995 194.2891 0002066 259.8970 100.1664 15.70997430 57767
Epoch: Feb 3, 2026 • Age: 22 hours

現在のステータス

高度 357.8 km
速度 7.70 km/s
衛星直下点 39.61°N, 7.29°W
打ち上げ日 Feb 8, 2025
運用期間 0.9 years
タイプ internet

技術仕様

分類 Payload
質量 960.00 kg
乾燥質量 910.00 kg
総質量 960.00 kg
長さ 0.30 m
直径 4.10 m
スパン 29.00 m
形状 Box + pan
製造者 SPXS
バスタイプ Starlink V2MD
フェーズステータス In Orbit
所有者/国 SPXS/US

大規模コンステレーション

Loading constellations...